Regional Weather Roundup
Issued by NWS

Home | Current Version | Previous Version | Graphics & Text | Print | Product List | Glossary On
Versions: 1 2 3 4 5 6 7 8 9 10 11 12 13 14 15 16 17 18 19 20 21 22 23 24 25 26 27 28 29 30 31 32 33 34 35 36 37 38 39 40 41 42 43 44 45 46 47 48 49 50
000
ASUS43 KIND 302109
RWRIN

WEATHER ROUNDUP FOR INDIANA
NATIONAL WEATHER SERVICE INDIANAPOLIS IN
500 PM EDT SAT JUL 30 2016

NOTE: "FAIR" INDICATES FEW OR NO CLOUDS BELOW 12,000 FEET WITH NO
SIGNIFICANT WEATHER AND/OR OBSTRUCTIONS TO VISIBILITY.

* - STATION DOES NOT REPORT WEATHER SUCH AS PRECIPITATION OR FOG.

+ - STATION NOT QUALITY CONTROLLED BY THE NATIONAL WEATHER SERVICE.
    USE DATA WITH CAUTION...ESPECIALLY DEWPOINT AND RELATIVE
    HUMIDITY OBSERVATIONS.

INZ001>003-010>013-019-020-302200-
NORTHWEST INDIANA

CITY           SKY/WX    TMP DP  RH WIND       PRES   REMARKS
GARY /AIRPORT/ MOSUNNY   77  72  83 NE9       29.98S
KNOX *+        PTSUNNY   77  59  53 N9        29.95S
LA PORTE +     LGT RAIN  77  72  84 N12       29.97F
MICHIGAN CITY+ CLOUDY    73  68  83 MISG      29.98S
MONTICELLO +   CLOUDY    79  64  61 CALM      29.94S
RENSSELAER +   CLOUDY    79  70  73 CALM      29.95F
VALPARAISO     CLOUDY    77  67  71 N9        29.97S

$$

LMZ046-743>745-302200-
SOUTHERN LAKE MICHIGAN

STATION/POSITION TIME  TEMP    WIND        PRES    WAVE
                       AIR SEA DIR/SP/G            HT
                 (UTC) (F)     (DEG/KT/KT) (MB)    (FT)
BURNS HARBOR     2010   71      10/ 11/ 14 1015.6S
MICHIGAN CITY    2000   71     350/ 13/ 13   N/A
5NW MICH CITY    2100   71 72   10/ 14/ 16   N/A     2

$$

INZ004-005-014>016-021>024-302200-
NORTH CENTRAL INDIANA

CITY           SKY/WX    TMP DP  RH WIND       PRES   REMARKS
ELKHART        PTSUNNY   77  64  65 NE6       29.97S
GOSHEN         MOSUNNY   78  66  66 N9        29.95F
LOGANSPORT +   MOSUNNY   81  66  61 W7        29.95F
PERU/GRISSOM   PTSUNNY   81  68  64 W9        29.93S
ROCHESTER +    MOSUNNY   82  70  65 N5        29.95S
SOUTH BEND     MOSUNNY   80  66  62 NE7       29.96S
WARSAW +       PTSUNNY   79  66  65 CALM      29.95S

$$

INZ006>009-017-018-025>027-302200-
NORTHEAST INDIANA

CITY           SKY/WX    TMP DP  RH WIND       PRES   REMARKS
ANGOLA *+        N/A     77  68  73 CALM      29.96S
AUBURN +       MOSUNNY   79  64  61 CALM      29.96S
FORT WAYNE     MOSUNNY   80  67  64 VRB3      29.95S
HUNTINGTON +   PTSUNNY   76  69  80 N3        29.95R

$$

INZ028-029-035-036-043>045-051>053-302200-
WEST CENTRAL INDIANA

CITY           SKY/WX    TMP DP  RH WIND       PRES   REMARKS
CRAWFORDSVL +  PTSUNNY   81  67  63 W7        29.96S
GREENCASTLE +  MOSUNNY   81  70  69 SW3       29.96F
LAFAYETTE      PTSUNNY   79  69  71 CALM      29.94S
TERRE HAUTE    MOSUNNY   84  64  50 W6        29.95F

$$

INZ030>032-037>040-046>048-054>057-064-065-302200-
CENTRAL INDIANA

CITY           SKY/WX    TMP DP  RH WIND       PRES   REMARKS
COLUMBUS       MOSUNNY   82  72  69 W9        29.95S
INDIANAPOLIS   MOSUNNY   84  65  52 W13       29.96R
-EAGLE CREEK   PTSUNNY   84  65  52 W12       29.94S
KOKOMO *+      MOSUNNY   84  64  51 W12       29.94S
MARION +       MOSUNNY   81  66  61 SW6       29.95S
MT COMFORT *+  PTSUNNY   84  66  54 W9        29.95S
SHELBYVILLE    MOSUNNY   84  66  54 W10       29.94S
ZIONSVILLE +   SUNNY     82  65  58 W12       29.96S

$$

INZ033-034-041-042-049-050-058-059-302200-
EAST CENTRAL INDIANA

CITY           SKY/WX    TMP DP  RH WIND       PRES   REMARKS
MUNCIE         MOSUNNY   85  68  56 W8        29.95S

$$

INZ060-061-067>069-081>083-085>088-302200-
SOUTHWEST INDIANA

CITY           SKY/WX    TMP DP  RH WIND       PRES   REMARKS
EVANSVILLE     PTSUNNY   84  69  60 W6        29.95F
HUNTINGBURG *+ CLOUDY    84  72  65 W6        29.95F
WASHINGTON +   MOSUNNY   83  71  65 MISG      29.95F

$$

INZ062-063-066-070>080-084-089>092-302200-
SOUTH CENTRAL AND SOUTHEAST INDIANA

CITY           SKY/WX    TMP DP  RH WIND       PRES   REMARKS
BLOOMINGTON    MOSUNNY   82  67  60 NW6       29.96F
MADISON *+     PTSUNNY   79  72  78 S6        29.98S
NORTH VERNON + PTSUNNY   84  72  65 CALM      29.96
SEYMOUR +      CLOUDY    84  68  58 W6        29.94F

$$




USA.gov is the U.S. government's official web portal to all federal, state and local government web resources and services.